Voltar ao catálogo

SL-16 DEB

AtivoLEO
NORAD 22331·DEBRIS·🇷🇺 Russia

Lançado Dec 25, 1992 de Baikonur Cosmodrome

Loading…

Próximas Passagens (próximas 24 horas)

TLE

AtualizadoSource: Space-Track

Época: Sep 14, 2026, 12:11 UTC

1 22331U 92093U   26257.50775789  .00000003  00000-0  30096-4 0  9999
2 22331  70.9207 286.5355 0075616 160.6827 272.4360 14.05009811727624

Acompanhe SL-16 DEB em tempo real com AllMySat

Download on the App Store